Darstellungsparameter: Aktuell verwendete Einstellungen:
Skalierung der Graphiken ... ?
xyx+y,   Skalierungsfaktor:      Skalierung: Modus: x, Faktor: 1
Darstellungszeitraum ... ?
Vom - - bis: - -   Zeitraum: 13.02.2006 - 19.02.2006
Min/Max/Avg-Anzeige ... ?
Zeige MMA aktuell
Zeige MMA Monat
Zeige MMA alles
Zeige --A aktuell
Zeige --A Monat
Zeige --A alles
Keine MMA-Anzeige
MMA:
Keine MMA-Graphiken
MMA-Basis: 13.02.2006 - 19.02.2006
Quicknavigation für Darstellung... ?
Tage:      1T, 2T, 3T, 5T -1T -2T -3T -5T +1T +2T +3T +5T
Wochen: 1W, 2W, 3W -1W -2W -3W +1W +2W +3W
Monate: 1M, 3M, 6M -1M -3M -6M +1M +3M +6M
Jahre:    1J, 3J, 5J, 10J -1J -3J -5J -10J +1J +3J +5J +10J
Nutze für die Darstellung ... ?
Originaldaten oder Mittelwerte auf ...
Stundenbasis Tagesbasis Wochenbasis
Monatsbasis Jahresbasis      Datenbasis: Original-Daten
Darstellen als:
Statistik (Auto) Statistik J:M      Darstellung:
Zur Graphik,    zurück zur Übersicht aller Sensoren.
 
Tabellarische Datenbersicht: ?
 
Sensor: Nr:Datum:Temp:Feuchte:Taupunkt:
Aussen-T/F 1 13-02-2006 00:07:10 0.1 C 61 % -6.51 C
2 13-02-2006 00:17:11 0.1 C 61 % -6.51 C
3 13-02-2006 00:27:11 0.3 C 60 % -6.53 C
4 13-02-2006 00:37:11 0.3 C 61 % -6.32 C
5 13-02-2006 00:47:11 0.5 C 59 % -6.56 C
6 13-02-2006 00:57:11 0.5 C 59 % -6.56 C
7 13-02-2006 01:07:10 0.6 C 60 % -6.25 C
8 13-02-2006 01:17:11 0.5 C 60 % -6.35 C
9 13-02-2006 01:27:11 0.5 C 60 % -6.35 C
10 13-02-2006 01:37:11 0.5 C 59 % -6.56 C
11 13-02-2006 01:47:10 0.4 C 59 % -6.66 C
12 13-02-2006 01:57:10 0.3 C 61 % -6.32 C
13 13-02-2006 02:07:10 0.3 C 61 % -6.32 C
14 13-02-2006 02:17:10 0.2 C 60 % -6.63 C
15 13-02-2006 02:27:10 0.2 C 60 % -6.63 C
16 13-02-2006 02:37:10 0.4 C 58 % -6.88 C
17 13-02-2006 02:48:12 0.4 C 58 % -6.88 C
18 13-02-2006 02:58:12 0.4 C 58 % -6.88 C
19 13-02-2006 03:08:12 0.4 C 58 % -6.88 C
20 13-02-2006 03:18:12 0.5 C 57 % -7.01 C
21 13-02-2006 03:28:12 0.5 C 57 % -7.01 C
22 13-02-2006 03:38:12 0.5 C 57 % -7.01 C
23 13-02-2006 03:48:12 0.5 C 57 % -7.01 C
24 13-02-2006 03:58:13 0.5 C 57 % -7.01 C
25 13-02-2006 04:08:12 0.5 C 57 % -7.01 C
Sensor: Nr:Datum:Temp:Feuchte:Taupunkt:
Aussen-T/F 26 13-02-2006 04:18:12 0.4 C 59 % -6.66 C
27 13-02-2006 04:28:12 0.4 C 58 % -6.88 C
28 13-02-2006 04:38:12 0.4 C 58 % -6.88 C
29 13-02-2006 04:48:13 0.4 C 58 % -6.88 C
30 13-02-2006 04:58:13 0.4 C 59 % -6.66 C
31 13-02-2006 05:08:13 0.4 C 58 % -6.88 C
32 13-02-2006 05:18:12 0.4 C 58 % -6.88 C
33 13-02-2006 05:28:12 0.4 C 59 % -6.66 C
34 13-02-2006 05:38:12 0.4 C 60 % -6.44 C
35 13-02-2006 05:48:12 0.4 C 61 % -6.23 C
36 13-02-2006 05:58:12 0.3 C 62 % -6.11 C
37 13-02-2006 06:08:12 0.3 C 62 % -6.11 C
38 13-02-2006 06:18:13 0.2 C 63 % -5.99 C
39 13-02-2006 06:28:13 0.2 C 63 % -5.99 C
40 13-02-2006 06:38:12 0.1 C 63 % -6.09 C
41 13-02-2006 06:48:12 0.1 C 63 % -6.09 C
42 13-02-2006 06:58:12 0.1 C 63 % -6.09 C
43 13-02-2006 07:08:12 0.1 C 64 % -5.88 C
44 13-02-2006 07:18:12 0.1 C 63 % -6.09 C
45 13-02-2006 07:28:12 0 C 63 % -6.18 C
46 13-02-2006 07:38:12 0 C 63 % -6.18 C
47 13-02-2006 07:48:12 0 C 63 % -6.18 C
48 13-02-2006 07:58:12 0.1 C 63 % -6.09 C
49 13-02-2006 08:08:12 0.1 C 61 % -6.51 C
50 13-02-2006 08:18:13 0.2 C 59 % -6.85 C
Sensor: Nr:Datum:Temp:Feuchte:Taupunkt:
Aussen-T/F 51 13-02-2006 08:28:13 0.3 C 59 % -6.75 C
52 13-02-2006 08:38:13 0.4 C 59 % -6.66 C
53 13-02-2006 08:48:13 0.5 C 58 % -6.79 C
54 13-02-2006 08:58:13 0.6 C 57 % -6.92 C
55 13-02-2006 09:08:17 0.7 C 57 % -6.82 C
56 13-02-2006 09:18:40 0.8 C 56 % -6.96 C
57 13-02-2006 09:28:12 0.8 C 56 % -6.96 C
58 13-02-2006 09:38:13 1 C 55 % -7.01 C
59 13-02-2006 09:48:12 1.3 C 55 % -6.73 C
60 13-02-2006 09:58:12 1.4 C 53 % -7.11 C
61 13-02-2006 10:08:13 1.5 C 52 % -7.27 C
62 13-02-2006 10:18:31 1.6 C 52 % -7.17 C
63 13-02-2006 10:28:13 1.6 C 51 % -7.42 C
64 13-02-2006 10:38:12 1.8 C 51 % -7.24 C
65 13-02-2006 10:48:12 1.8 C 50 % -7.49 C
66 13-02-2006 10:58:12 2.3 C 49 % -7.29 C
67 13-02-2006 11:08:12 2.4 C 47 % -7.74 C
68 13-02-2006 11:18:13 2.5 C 47 % -7.65 C
69 13-02-2006 11:28:13 2.8 C 46 % -7.65 C
70 13-02-2006 11:38:13 3.1 C 45 % -7.66 C
71 13-02-2006 11:48:13 3.7 C 43 % -7.7 C
72 13-02-2006 11:58:13 3.9 C 42 % -7.82 C
73 13-02-2006 12:08:13 4 C 41 % -8.04 C
74 13-02-2006 12:18:13 4.1 C 40 % -8.26 C
75 13-02-2006 12:28:13 4.2 C 40 % -8.17 C
Sensor: Nr:Datum:Temp:Feuchte:Taupunkt:
Aussen-T/F 76 13-02-2006 12:38:12 4.3 C 40 % -8.08 C
77 13-02-2006 12:48:13 4.3 C 40 % -8.08 C
78 13-02-2006 12:58:13 4.7 C 40 % -7.72 C
79 13-02-2006 13:08:13 4.8 C 40 % -7.63 C
80 13-02-2006 13:18:13 4.6 C 40 % -7.81 C
81 13-02-2006 13:28:13 5.1 C 40 % -7.36 C
82 13-02-2006 13:38:13 5.3 C 38 % -7.84 C
83 13-02-2006 13:48:13 5.6 C 38 % -7.57 C
84 13-02-2006 13:58:13 6.1 C 37 % -7.47 C
85 13-02-2006 14:08:13 6.4 C 36 % -7.56 C
86 13-02-2006 14:18:13 6.5 C 36 % -7.47 C
87 13-02-2006 14:28:13 7 C 36 % -7.02 C
88 13-02-2006 14:38:13 6.6 C 35 % -7.74 C
89 13-02-2006 14:48:13 6.8 C 35 % -7.57 C
90 13-02-2006 14:58:13 7.1 C 35 % -7.3 C
91 13-02-2006 15:08:13 7.3 C 35 % -7.12 C
92 13-02-2006 15:18:13 7.7 C 35 % -6.77 C
93 13-02-2006 15:28:13 7.8 C 34 % -7.06 C
94 13-02-2006 15:38:13 7.9 C 34 % -6.97 C
95 13-02-2006 15:48:13 7.8 C 33 % -7.44 C
96 13-02-2006 15:58:13 7.8 C 33 % -7.44 C
97 13-02-2006 16:08:13 7.6 C 35 % -6.86 C
98 13-02-2006 16:18:13 6.9 C 35 % -7.48 C
99 13-02-2006 16:28:13 6.4 C 37 % -7.2 C
100 13-02-2006 16:38:13 6.1 C 39 % -6.79 C
Sensor: Nr:Datum:Temp:Feuchte:Taupunkt:
Aussen-T/F 101 13-02-2006 16:48:13 5.8 C 40 % -6.73 C
102 13-02-2006 16:58:13 5.6 C 41 % -6.59 C
103 13-02-2006 17:08:13 5.3 C 41 % -6.86 C
104 13-02-2006 17:18:13 5.2 C 42 % -6.64 C
105 13-02-2006 17:28:13 4.7 C 44 % -6.49 C
106 13-02-2006 17:38:14 4.4 C 45 % -6.47 C
107 13-02-2006 17:48:14 4.2 C 45 % -6.65 C
108 13-02-2006 17:58:14 4 C 45 % -6.84 C
109 13-02-2006 18:08:14 3.8 C 47 % -6.45 C
110 13-02-2006 18:18:13 3.7 C 47 % -6.55 C
111 13-02-2006 18:28:13 3.6 C 48 % -6.36 C
112 13-02-2006 18:38:13 3.5 C 48 % -6.46 C
113 13-02-2006 18:48:14 3.3 C 48 % -6.64 C
114 13-02-2006 18:58:14 3.2 C 49 % -6.46 C
115 13-02-2006 19:08:14 3.2 C 49 % -6.46 C
116 13-02-2006 19:18:14 3.1 C 50 % -6.29 C
117 13-02-2006 19:28:14 3 C 50 % -6.39 C
118 13-02-2006 19:38:13 3.1 C 49 % -6.56 C
119 13-02-2006 19:48:13 3.1 C 49 % -6.56 C
120 13-02-2006 19:58:13 3.1 C 50 % -6.29 C
121 13-02-2006 20:08:13 3.1 C 49 % -6.56 C
122 13-02-2006 20:18:14 3.2 C 49 % -6.46 C
123 13-02-2006 20:28:14 3.2 C 49 % -6.46 C
124 13-02-2006 20:38:14 3.2 C 50 % -6.2 C
125 13-02-2006 20:48:14 3.2 C 51 % -5.94 C
Sensor: Nr:Datum:Temp:Feuchte:Taupunkt:
Aussen-T/F 126 13-02-2006 20:58:14 3.1 C 52 % -5.78 C
127 13-02-2006 21:08:14 3.1 C 53 % -5.53 C
128 13-02-2006 21:18:14 3.1 C 52 % -5.78 C
129 13-02-2006 21:28:14 3.1 C 51 % -6.03 C
130 13-02-2006 21:38:13 3.1 C 50 % -6.29 C
131 13-02-2006 21:48:14 3.1 C 50 % -6.29 C
132 13-02-2006 21:58:14 3.1 C 51 % -6.03 C
133 13-02-2006 22:08:13 3.1 C 53 % -5.53 C
134 13-02-2006 22:18:14 3.1 C 52 % -5.78 C
135 13-02-2006 22:28:14 3.1 C 52 % -5.78 C
136 13-02-2006 22:38:14 3.1 C 53 % -5.53 C
137 13-02-2006 22:48:14 3.1 C 55 % -5.05 C
138 13-02-2006 22:58:14 2.9 C 57 % -4.76 C
139 13-02-2006 23:08:14 2.8 C 58 % -4.63 C
140 13-02-2006 23:18:14 2.9 C 58 % -4.53 C
141 13-02-2006 23:28:14 2.9 C 59 % -4.31 C
142 13-02-2006 23:38:14 2.9 C 60 % -4.08 C
143 13-02-2006 23:48:14 2.8 C 59 % -4.4 C
144 13-02-2006 23:58:14 2.9 C 60 % -4.08 C
145 14-02-2006 00:08:14 2.9 C 59 % -4.31 C
146 14-02-2006 00:18:14 2.9 C 59 % -4.31 C
147 14-02-2006 00:28:14 2.8 C 60 % -4.18 C
148 14-02-2006 00:38:14 2.8 C 61 % -3.96 C
149 14-02-2006 00:48:15 2.8 C 62 % -3.74 C
150 14-02-2006 00:58:15 2.8 C 61 % -3.96 C
Sensor: Nr:Datum:Temp:Feuchte:Taupunkt:
Aussen-T/F 151 14-02-2006 01:08:14 2.8 C 61 % -3.96 C
152 14-02-2006 01:18:14 2.7 C 62 % -3.84 C
153 14-02-2006 01:28:14 2.7 C 63 % -3.62 C
154 14-02-2006 01:38:14 2.7 C 63 % -3.62 C
155 14-02-2006 01:48:14 2.6 C 63 % -3.72 C
156 14-02-2006 01:58:14 2.7 C 63 % -3.62 C
157 14-02-2006 02:08:14 2.7 C 63 % -3.62 C
158 14-02-2006 02:18:14 2.6 C 64 % -3.51 C
159 14-02-2006 02:28:14 2.7 C 65 % -3.21 C
160 14-02-2006 02:38:14 2.6 C 65 % -3.3 C
161 14-02-2006 02:49:15 2.6 C 65 % -3.3 C
162 14-02-2006 02:59:15 2.6 C 65 % -3.3 C
163 14-02-2006 03:09:15 2.6 C 65 % -3.3 C
164 14-02-2006 03:19:16 2.6 C 66 % -3.1 C
165 14-02-2006 03:29:16 2.6 C 67 % -2.9 C
166 14-02-2006 03:39:16 2.6 C 66 % -3.1 C
167 14-02-2006 03:49:16 2.6 C 66 % -3.1 C
168 14-02-2006 03:59:16 2.6 C 67 % -2.9 C
169 14-02-2006 04:09:16 2.5 C 67 % -2.99 C
170 14-02-2006 04:19:16 2.5 C 67 % -2.99 C
171 14-02-2006 04:29:16 2.6 C 67 % -2.9 C
172 14-02-2006 04:39:16 2.6 C 67 % -2.9 C
173 14-02-2006 04:49:16 2.5 C 66 % -3.19 C
174 14-02-2006 04:59:16 2.5 C 66 % -3.19 C
175 14-02-2006 05:09:16 2.5 C 67 % -2.99 C
Sensor: Nr:Datum:Temp:Feuchte:Taupunkt:
Aussen-T/F 176 14-02-2006 05:19:16 2.5 C 66 % -3.19 C
177 14-02-2006 05:29:16 2.5 C 66 % -3.19 C
178 14-02-2006 05:39:16 2.5 C 66 % -3.19 C
179 14-02-2006 05:49:16 2.5 C 66 % -3.19 C
180 14-02-2006 05:59:16 2.5 C 66 % -3.19 C
181 14-02-2006 06:09:16 2.5 C 67 % -2.99 C
182 14-02-2006 06:19:16 2.5 C 67 % -2.99 C
183 14-02-2006 06:29:16 2.5 C 66 % -3.19 C
184 14-02-2006 06:39:16 2.5 C 66 % -3.19 C
185 14-02-2006 06:49:16 2.5 C 66 % -3.19 C
186 14-02-2006 06:59:16 2.5 C 65 % -3.4 C
187 14-02-2006 07:09:17 2.6 C 65 % -3.3 C
188 14-02-2006 07:19:17 2.6 C 65 % -3.3 C
189 14-02-2006 07:29:17 2.5 C 66 % -3.19 C
190 14-02-2006 07:39:16 2.5 C 66 % -3.19 C
191 14-02-2006 07:49:16 2.6 C 67 % -2.9 C
192 14-02-2006 07:59:16 2.6 C 67 % -2.9 C
193 14-02-2006 08:09:17 2.6 C 67 % -2.9 C
194 14-02-2006 08:19:16 2.7 C 67 % -2.8 C
195 14-02-2006 08:29:16 2.8 C 66 % -2.91 C
196 14-02-2006 08:39:16 3 C 65 % -2.92 C
197 14-02-2006 08:49:16 3.1 C 65 % -2.83 C
198 14-02-2006 08:59:17 3.2 C 65 % -2.73 C
199 14-02-2006 09:09:16 3.3 C 65 % -2.64 C
200 14-02-2006 09:19:16 3.3 C 65 % -2.64 C
Sensor: Nr:Datum:Temp:Feuchte:Taupunkt:
Aussen-T/F 201 14-02-2006 09:29:16 3.4 C 65 % -2.54 C
202 14-02-2006 09:39:17 3.5 C 65 % -2.44 C
203 14-02-2006 09:49:16 3.5 C 65 % -2.44 C
204 14-02-2006 09:59:16 3.6 C 64 % -2.56 C
205 14-02-2006 10:09:17 3.7 C 64 % -2.46 C
206 14-02-2006 10:19:17 3.8 C 64 % -2.37 C
207 14-02-2006 10:29:17 3.9 C 63 % -2.49 C
208 14-02-2006 10:39:16 4 C 63 % -2.39 C
209 14-02-2006 10:49:16 4.2 C 63 % -2.2 C
210 14-02-2006 10:59:16 4.5 C 63 % -1.92 C
211 14-02-2006 11:09:16 4.6 C 62 % -2.04 C
212 14-02-2006 11:19:17 4.7 C 62 % -1.94 C
213 14-02-2006 11:29:17 4.7 C 62 % -1.94 C
214 14-02-2006 11:39:17 4.8 C 62 % -1.85 C
215 14-02-2006 11:49:17 5 C 61 % -1.88 C
216 14-02-2006 11:59:17 5.2 C 61 % -1.69 C
217 14-02-2006 12:09:17 5.4 C 61 % -1.5 C
218 14-02-2006 12:19:17 5.5 C 61 % -1.41 C
219 14-02-2006 12:29:17 5.7 C 60 % -1.44 C
220 14-02-2006 12:39:16 5.8 C 60 % -1.35 C
221 14-02-2006 12:49:17 5.8 C 60 % -1.35 C
222 14-02-2006 12:59:17 5.9 C 60 % -1.26 C
223 14-02-2006 13:09:16 5.9 C 58 % -1.72 C
224 14-02-2006 13:19:17 6.1 C 58 % -1.53 C
225 14-02-2006 13:29:17 6.2 C 58 % -1.43 C
Sensor: Nr:Datum:Temp:Feuchte:Taupunkt:
Aussen-T/F 226 14-02-2006 13:39:17 6.4 C 58 % -1.25 C
227 14-02-2006 13:49:17 6.6 C 58 % -1.06 C
228 14-02-2006 13:59:17 6.3 C 58 % -1.34 C
229 14-02-2006 14:09:17 6.5 C 59 % -0.92 C
230 14-02-2006 14:19:17 6.9 C 59 % -0.54 C
231 14-02-2006 14:29:17 6.8 C 57 % -1.11 C
232 14-02-2006 14:39:17 6.9 C 57 % -1.01 C
233 14-02-2006 14:49:17 6.9 C 58 % -0.78 C
234 14-02-2006 14:59:17 6.9 C 58 % -0.78 C
235 14-02-2006 15:09:17 6.8 C 57 % -1.11 C
236 14-02-2006 15:19:17 6.8 C 57 % -1.11 C
237 14-02-2006 15:29:17 6.5 C 58 % -1.15 C
238 14-02-2006 15:39:17 6.4 C 59 % -1.01 C
239 14-02-2006 15:49:17 6.4 C 60 % -0.78 C
240 14-02-2006 15:59:17 6.5 C 60 % -0.69 C
241 14-02-2006 16:09:17 6.6 C 60 % -0.6 C
242 14-02-2006 16:19:17 6.5 C 60 % -0.69 C
243 14-02-2006 16:29:17 6.4 C 60 % -0.78 C
244 14-02-2006 16:39:17 6.2 C 61 % -0.75 C
245 14-02-2006 16:49:17 6 C 61 % -0.94 C
246 14-02-2006 16:59:17 5.8 C 62 % -0.9 C
247 14-02-2006 17:09:17 5.7 C 63 % -0.78 C
248 14-02-2006 17:19:18 5.6 C 63 % -0.87 C
249 14-02-2006 17:29:18 5.3 C 64 % -0.94 C
250 14-02-2006 17:39:17 5 C 65 % -1.02 C
Sensor: Nr:Datum:Temp:Feuchte:Taupunkt:
Aussen-T/F 251 14-02-2006 17:49:18 4.8 C 67 % -0.8 C
252 14-02-2006 17:59:18 4.8 C 67 % -0.8 C
253 14-02-2006 18:09:18 4.8 C 68 % -0.59 C
254 14-02-2006 18:19:17 4.8 C 68 % -0.59 C
255 14-02-2006 18:29:18 4.9 C 69 % -0.3 C
256 14-02-2006 18:39:17 5 C 68 % -0.4 C
257 14-02-2006 18:49:17 5 C 68 % -0.4 C
258 14-02-2006 18:59:17 5 C 69 % -0.2 C
259 14-02-2006 19:09:17 5 C 69 % -0.2 C
260 14-02-2006 19:19:18 5.1 C 70 % 0.09 C
261 14-02-2006 19:29:18 5.1 C 70 % 0.09 C
262 14-02-2006 19:39:18 5 C 70 % 0 C
263 14-02-2006 19:49:18 4.8 C 72 % 0.19 C
264 14-02-2006 19:59:18 4.9 C 72 % 0.29 C
265 14-02-2006 20:09:18 5 C 71 % 0.19 C
266 14-02-2006 20:19:17 5.1 C 70 % 0.09 C
267 14-02-2006 20:29:17 5.1 C 70 % 0.09 C
268 14-02-2006 20:39:17 5.1 C 70 % 0.09 C
269 14-02-2006 20:49:17 5.1 C 70 % 0.09 C
270 14-02-2006 20:59:17 5 C 70 % 0 C
271 14-02-2006 21:09:18 5 C 70 % 0 C
272 14-02-2006 21:19:18 4.8 C 72 % 0.19 C
273 14-02-2006 21:29:18 4.8 C 72 % 0.19 C
274 14-02-2006 21:39:18 4.6 C 74 % 0.38 C
275 14-02-2006 21:49:18 4.5 C 75 % 0.46 C
Sensor: Nr:Datum:Temp:Feuchte:Taupunkt:
Aussen-T/F 276 14-02-2006 21:59:18 4.3 C 79 % 0.99 C
277 14-02-2006 22:09:18 4.3 C 80 % 1.16 C
278 14-02-2006 22:19:18 4.4 C 81 % 1.43 C
279 14-02-2006 22:29:18 4.4 C 81 % 1.43 C
280 14-02-2006 22:39:17 4.4 C 82 % 1.6 C
281 14-02-2006 22:49:18 4.4 C 83 % 1.77 C
282 14-02-2006 22:59:18 4.4 C 83 % 1.77 C
283 14-02-2006 23:09:17 4.4 C 83 % 1.77 C
284 14-02-2006 23:19:18 4.2 C 84 % 1.74 C
285 14-02-2006 23:29:18 4.2 C 85 % 1.91 C
286 14-02-2006 23:39:18 4.4 C 86 % 2.27 C
287 14-02-2006 23:49:18 4.4 C 86 % 2.27 C
288 14-02-2006 23:59:18 4.5 C 86 % 2.37 C
289 15-02-2006 00:09:18 4.5 C 86 % 2.37 C
290 15-02-2006 00:19:18 4.5 C 86 % 2.37 C
291 15-02-2006 00:29:18 4.5 C 86 % 2.37 C
292 15-02-2006 00:39:18 4.5 C 86 % 2.37 C
293 15-02-2006 00:49:18 4.5 C 86 % 2.37 C
294 15-02-2006 00:59:18 4.5 C 86 % 2.37 C
295 15-02-2006 01:09:18 4.4 C 86 % 2.27 C
296 15-02-2006 01:19:18 4.3 C 86 % 2.17 C
297 15-02-2006 01:29:18 4.7 C 88 % 2.89 C
298 15-02-2006 01:39:18 4.9 C 88 % 3.08 C
299 15-02-2006 01:49:18 5 C 86 % 2.86 C
300 15-02-2006 01:59:18 5 C 85 % 2.69 C
Sensor: Nr:Datum:Temp:Feuchte:Taupunkt:
Aussen-T/F 301 15-02-2006 02:09:18 4.8 C 86 % 2.66 C
302 15-02-2006 02:19:18 4.6 C 85 % 2.3 C
303 15-02-2006 02:29:18 4.3 C 85 % 2.01 C
304 15-02-2006 02:39:18 3.8 C 86 % 1.68 C
305 15-02-2006 02:50:20 3.7 C 86 % 1.58 C
306 15-02-2006 03:00:20 3.7 C 87 % 1.74 C
307 15-02-2006 03:10:20 3.4 C 87 % 1.45 C
308 15-02-2006 03:20:20 3.3 C 87 % 1.35 C
309 15-02-2006 03:30:20 3.6 C 88 % 1.8 C
310 15-02-2006 03:40:20 3.8 C 88 % 2 C
311 15-02-2006 03:50:20 4.1 C 88 % 2.3 C
312 15-02-2006 04:00:20 4.4 C 88 % 2.59 C
313 15-02-2006 04:10:20 4.3 C 88 % 2.49 C
314 15-02-2006 04:20:20 4.4 C 88 % 2.59 C
315 15-02-2006 04:30:20 4.4 C 87 % 2.43 C
316 15-02-2006 04:40:21 4.3 C 87 % 2.33 C
317 15-02-2006 04:50:20 4.4 C 87 % 2.43 C
318 15-02-2006 05:00:20 4.5 C 86 % 2.37 C
319 15-02-2006 05:10:20 4.6 C 84 % 2.14 C
320 15-02-2006 05:20:20 4.6 C 84 % 2.14 C
321 15-02-2006 05:30:20 4.6 C 83 % 1.97 C
322 15-02-2006 05:40:20 4.6 C 83 % 1.97 C
323 15-02-2006 05:50:20 4.5 C 83 % 1.87 C
324 15-02-2006 06:00:20 4.4 C 82 % 1.6 C
325 15-02-2006 06:10:20 4.3 C 82 % 1.51 C
Sensor: Nr:Datum:Temp:Feuchte:Taupunkt:
Aussen-T/F 326 15-02-2006 06:20:20 4.3 C 83 % 1.67 C
327 15-02-2006 06:30:20 4.4 C 83 % 1.77 C
328 15-02-2006 06:40:20 4.5 C 83 % 1.87 C
329 15-02-2006 06:50:20 4.6 C 83 % 1.97 C
330 15-02-2006 07:00:20 4.9 C 82 % 2.09 C
331 15-02-2006 07:10:20 5 C 80 % 1.84 C
332 15-02-2006 07:20:20 5.1 C 79 % 1.77 C
333 15-02-2006 07:30:20 5.2 C 79 % 1.86 C
334 15-02-2006 07:40:20 5.3 C 79 % 1.96 C
335 15-02-2006 07:50:20 5.3 C 78 % 1.78 C
336 15-02-2006 08:00:20 5.4 C 78 % 1.88 C
337 15-02-2006 08:10:20 5.5 C 77 % 1.8 C
338 15-02-2006 08:20:21 5.5 C 77 % 1.8 C
339 15-02-2006 08:30:21 5.6 C 76 % 1.71 C
340 15-02-2006 08:40:20 5.7 C 76 % 1.81 C
341 15-02-2006 08:50:20 5.4 C 78 % 1.88 C
342 15-02-2006 09:00:20 5.3 C 80 % 2.14 C
343 15-02-2006 09:10:21 5.2 C 82 % 2.39 C
344 15-02-2006 09:20:20 5.1 C 83 % 2.46 C
345 15-02-2006 09:30:20 5.1 C 84 % 2.63 C
346 15-02-2006 09:40:20 5.2 C 84 % 2.72 C
347 15-02-2006 09:50:21 5.2 C 84 % 2.72 C
348 15-02-2006 10:00:21 5.2 C 84 % 2.72 C
349 15-02-2006 10:10:20 5.1 C 84 % 2.63 C
350 15-02-2006 10:20:20 5.1 C 85 % 2.79 C
Sensor: Nr:Datum:Temp:Feuchte:Taupunkt:
Aussen-T/F 351 15-02-2006 10:30:20 5.1 C 84 % 2.63 C
352 15-02-2006 10:40:21 5.2 C 84 % 2.72 C
353 15-02-2006 10:50:20 5.3 C 83 % 2.65 C
354 15-02-2006 11:00:20 5.3 C 83 % 2.65 C
355 15-02-2006 11:10:21 5.4 C 83 % 2.75 C
356 15-02-2006 11:20:21 5.6 C 83 % 2.95 C
357 15-02-2006 11:30:21 5.8 C 82 % 2.97 C
358 15-02-2006 11:40:20 6 C 82 % 3.17 C
359 15-02-2006 11:50:21 6.1 C 81 % 3.09 C
360 15-02-2006 12:00:21 6.2 C 81 % 3.19 C
361 15-02-2006 12:10:21 5.9 C 81 % 2.9 C
362 15-02-2006 12:20:20 5.9 C 81 % 2.9 C
363 15-02-2006 12:30:20 5.9 C 81 % 2.9 C
364 15-02-2006 12:40:20 6 C 79 % 2.64 C
365 15-02-2006 12:50:20 6 C 78 % 2.46 C
366 15-02-2006 13:00:20 6.1 C 77 % 2.38 C
367 15-02-2006 13:10:21 6.3 C 74 % 2.02 C
368 15-02-2006 13:20:21 6.3 C 74 % 2.02 C
369 15-02-2006 13:30:21 6.4 C 73 % 1.92 C
370 15-02-2006 13:40:21 6.8 C 72 % 2.12 C
371 15-02-2006 13:50:21 6.8 C 72 % 2.12 C
372 15-02-2006 14:00:21 7.2 C 70 % 2.11 C
373 15-02-2006 14:10:21 7.4 C 68 % 1.89 C
374 15-02-2006 14:20:20 7.6 C 67 % 1.88 C
375 15-02-2006 14:30:20 8.1 C 64 % 1.71 C
Sensor: Nr:Datum:Temp:Feuchte:Taupunkt:
Aussen-T/F 376 15-02-2006 14:40:21 8.5 C 62 % 1.65 C
377 15-02-2006 14:50:21 8.7 C 62 % 1.84 C
378 15-02-2006 15:00:21 8.7 C 61 % 1.61 C
379 15-02-2006 15:10:21 8.9 C 61 % 1.8 C
380 15-02-2006 15:20:21 9 C 59 % 1.43 C
381 15-02-2006 15:30:21 9.1 C 59 % 1.52 C
382 15-02-2006 15:40:21 9 C 59 % 1.43 C
383 15-02-2006 15:50:21 8.9 C 61 % 1.8 C
384 15-02-2006 16:00:21 8.6 C 63 % 1.97 C
385 15-02-2006 16:10:21 8.9 C 63 % 2.25 C
386 15-02-2006 16:20:21 8.9 C 64 % 2.47 C
387 15-02-2006 16:30:21 8.6 C 64 % 2.19 C
388 15-02-2006 16:40:21 8.2 C 66 % 2.24 C
389 15-02-2006 16:50:21 8.1 C 68 % 2.56 C
390 15-02-2006 17:00:21 8 C 69 % 2.67 C
391 15-02-2006 17:10:22 7.9 C 71 % 2.98 C
392 15-02-2006 17:20:21 7.8 C 71 % 2.88 C
393 15-02-2006 17:30:21 7.8 C 72 % 3.08 C
394 15-02-2006 17:40:21 7.6 C 75 % 3.46 C
395 15-02-2006 17:50:21 7.4 C 77 % 3.64 C
396 15-02-2006 18:00:21 7.5 C 77 % 3.74 C
397 15-02-2006 18:10:21 7.6 C 77 % 3.83 C
398 15-02-2006 18:20:21 7.6 C 78 % 4.02 C
399 15-02-2006 18:30:21 7.6 C 78 % 4.02 C
400 15-02-2006 18:40:21 7.6 C 79 % 4.2 C
Sensor: Nr:Datum:Temp:Feuchte:Taupunkt:
Aussen-T/F 401 15-02-2006 18:50:21 7.7 C 79 % 4.3 C
402 15-02-2006 19:00:21 7.6 C 79 % 4.2 C
403 15-02-2006 19:10:22 7.8 C 78 % 4.21 C
404 15-02-2006 19:20:21 7.8 C 77 % 4.03 C
405 15-02-2006 19:30:21 7.7 C 77 % 3.93 C
406 15-02-2006 19:40:21 7.6 C 77 % 3.83 C
407 15-02-2006 19:50:21 7.9 C 77 % 4.12 C
408 15-02-2006 20:00:21 7.9 C 76 % 3.94 C
409 15-02-2006 20:10:21 7.9 C 76 % 3.94 C
410 15-02-2006 20:20:21 7.9 C 76 % 3.94 C
411 15-02-2006 20:30:21 7.8 C 76 % 3.84 C
412 15-02-2006 20:40:22 7.9 C 76 % 3.94 C
413 15-02-2006 20:50:22 8.1 C 74 % 3.75 C
414 15-02-2006 21:00:22 8.2 C 73 % 3.66 C
415 15-02-2006 21:10:21 8.2 C 73 % 3.66 C
416 15-02-2006 21:20:22 8.1 C 73 % 3.56 C
417 15-02-2006 21:30:22 8.2 C 72 % 3.46 C
418 15-02-2006 21:40:22 8 C 73 % 3.46 C
419 15-02-2006 21:50:21 7.8 C 77 % 4.03 C
420 15-02-2006 22:00:21 7.6 C 78 % 4.02 C
421 15-02-2006 22:10:21 7.4 C 77 % 3.64 C
422 15-02-2006 22:20:22 7.1 C 78 % 3.53 C
423 15-02-2006 22:30:22 7.1 C 77 % 3.35 C
424 15-02-2006 22:40:22 7 C 78 % 3.43 C
425 15-02-2006 22:50:22 7 C 79 % 3.61 C
Sensor: Nr:Datum:Temp:Feuchte:Taupunkt:
Aussen-T/F 426 15-02-2006 23:00:22 6.8 C 82 % 3.95 C
427 15-02-2006 23:10:22 6.8 C 83 % 4.12 C
428 15-02-2006 23:20:22 6.6 C 84 % 4.1 C
429 15-02-2006 23:30:22 6.5 C 85 % 4.17 C
430 15-02-2006 23:40:21 6.7 C 86 % 4.53 C
431 15-02-2006 23:50:22 6.7 C 87 % 4.69 C
432 16-02-2006 00:00:22 6.7 C 88 % 4.86 C
433 16-02-2006 00:10:22 6.7 C 88 % 4.86 C
434 16-02-2006 00:20:22 6.7 C 88 % 4.86 C
435 16-02-2006 00:30:22 6.6 C 88 % 4.76 C
436 16-02-2006 00:40:22 6.5 C 89 % 4.82 C
437 16-02-2006 00:50:21 6.5 C 89 % 4.82 C
438 16-02-2006 01:00:21 6.5 C 89 % 4.82 C
439 16-02-2006 01:10:23 6.4 C 89 % 4.72 C
440 16-02-2006 01:20:23 6.4 C 89 % 4.72 C
441 16-02-2006 01:30:23 6.3 C 89 % 4.62 C
442 16-02-2006 01:40:22 6.3 C 89 % 4.62 C
443 16-02-2006 01:50:23 6.3 C 89 % 4.62 C
444 16-02-2006 02:00:23 6.2 C 89 % 4.53 C
445 16-02-2006 02:10:22 6.2 C 90 % 4.69 C
446 16-02-2006 02:20:22 6.2 C 90 % 4.69 C
447 16-02-2006 02:30:22 6.1 C 90 % 4.59 C
448 16-02-2006 02:40:22 6.1 C 90 % 4.59 C
449 16-02-2006 02:51:23 6.1 C 90 % 4.59 C
450 16-02-2006 03:01:23 6.1 C 90 % 4.59 C
Sensor: Nr:Datum:Temp:Feuchte:Taupunkt:
Aussen-T/F 451 16-02-2006 03:11:24 6.1 C 90 % 4.59 C
452 16-02-2006 03:21:24 6.1 C 90 % 4.59 C
453 16-02-2006 03:31:24 6.1 C 90 % 4.59 C
454 16-02-2006 03:41:24 6 C 90 % 4.49 C
455 16-02-2006 03:51:24 6 C 90 % 4.49 C
456 16-02-2006 04:01:24 5.9 C 91 % 4.55 C
457 16-02-2006 04:11:24 5.9 C 91 % 4.55 C
458 16-02-2006 04:21:24 5.9 C 91 % 4.55 C
459 16-02-2006 04:31:25 5.9 C 91 % 4.55 C
460 16-02-2006 04:41:25 5.8 C 91 % 4.45 C
461 16-02-2006 04:51:24 5.8 C 91 % 4.45 C
462 16-02-2006 05:01:25 5.8 C 91 % 4.45 C
463 16-02-2006 05:11:25 5.8 C 91 % 4.45 C
464 16-02-2006 05:21:24 5.7 C 91 % 4.35 C
465 16-02-2006 05:31:24 5.8 C 92 % 4.6 C
466 16-02-2006 05:41:24 5.8 C 92 % 4.6 C
467 16-02-2006 05:51:24 5.8 C 92 % 4.6 C
468 16-02-2006 06:01:24 5.8 C 92 % 4.6 C
469 16-02-2006 06:11:24 5.7 C 92 % 4.5 C
470 16-02-2006 06:21:24 5.8 C 92 % 4.6 C
471 16-02-2006 06:31:24 5.8 C 92 % 4.6 C
472 16-02-2006 06:41:24 5.8 C 92 % 4.6 C
473 16-02-2006 06:51:24 5.8 C 92 % 4.6 C
474 16-02-2006 07:01:24 5.8 C 92 % 4.6 C
475 16-02-2006 07:11:24 5.8 C 92 % 4.6 C
Sensor: Nr:Datum:Temp:Feuchte:Taupunkt:
Aussen-T/F 476 16-02-2006 07:21:24 5.8 C 92 % 4.6 C
477 16-02-2006 07:31:25 5.8 C 92 % 4.6 C
478 16-02-2006 07:41:25 5.8 C 92 % 4.6 C
479 16-02-2006 07:51:24 5.8 C 92 % 4.6 C
480 16-02-2006 08:01:25 5.9 C 92 % 4.7 C
481 16-02-2006 08:11:25 5.9 C 92 % 4.7 C
482 16-02-2006 08:21:24 6 C 91 % 4.65 C
483 16-02-2006 08:31:24 6.1 C 91 % 4.74 C
484 16-02-2006 08:41:24 6.2 C 90 % 4.69 C
485 16-02-2006 08:51:24 6.2 C 90 % 4.69 C
486 16-02-2006 09:01:24 6.3 C 89 % 4.62 C
487 16-02-2006 09:11:24 6.5 C 89 % 4.82 C
488 16-02-2006 09:21:24 6.5 C 88 % 4.66 C
489 16-02-2006 09:31:25 6.5 C 86 % 4.33 C
490 16-02-2006 09:41:25 6.8 C 85 % 4.46 C
491 16-02-2006 09:51:24 6.9 C 84 % 4.39 C
492 16-02-2006 10:01:25 7.1 C 83 % 4.41 C
493 16-02-2006 10:11:25 7.3 C 79 % 3.91 C
494 16-02-2006 10:21:25 7.3 C 77 % 3.54 C
495 16-02-2006 10:31:24 7.8 C 75 % 3.65 C
496 16-02-2006 10:41:24 8 C 70 % 2.87 C
497 16-02-2006 10:51:24 8.2 C 69 % 2.86 C
498 16-02-2006 11:01:24 8.2 C 69 % 2.86 C
499 16-02-2006 11:11:24 8.3 C 70 % 3.16 C
500 16-02-2006 11:21:25 8.5 C 69 % 3.15 C
Sensor: Nr:Datum:Temp:Feuchte:Taupunkt:
Aussen-T/F 501 16-02-2006 11:31:25 8.5 C 68 % 2.94 C
502 16-02-2006 11:41:25 8.4 C 70 % 3.26 C
503 16-02-2006 11:51:25 8.6 C 71 % 3.65 C
504 16-02-2006 12:01:25 8.8 C 69 % 3.44 C
505 16-02-2006 12:11:25 8.9 C 68 % 3.32 C
506 16-02-2006 12:21:25 9.3 C 66 % 3.28 C
507 16-02-2006 12:31:24 9.5 C 64 % 3.04 C
508 16-02-2006 12:41:24 9.4 C 62 % 2.5 C
509 16-02-2006 12:51:25 9.7 C 61 % 2.55 C
510 16-02-2006 13:01:24 10 C 59 % 2.37 C
511 16-02-2006 13:11:24 9.4 C 60 % 2.04 C
512 16-02-2006 13:21:25 9.4 C 59 % 1.81 C
513 16-02-2006 13:31:25 9.7 C 58 % 1.85 C
514 16-02-2006 13:41:25 10.2 C 56 % 1.83 C
515 16-02-2006 13:51:25 10.2 C 55 % 1.58 C
516 16-02-2006 14:01:25 10 C 57 % 1.89 C
517 16-02-2006 14:11:25 9.9 C 57 % 1.79 C
518 16-02-2006 14:21:25 10.5 C 55 % 1.85 C
519 16-02-2006 14:31:24 10.9 C 54 % 1.97 C
520 16-02-2006 14:41:24 10.4 C 54 % 1.51 C
521 16-02-2006 14:51:25 9.6 C 60 % 2.23 C
522 16-02-2006 15:01:25 9.1 C 69 % 3.72 C
523 16-02-2006 15:11:25 8.8 C 70 % 3.64 C
524 16-02-2006 15:21:25 9.3 C 68 % 3.71 C
525 16-02-2006 15:31:25 9.7 C 66 % 3.67 C
Sensor: Nr:Datum:Temp:Feuchte:Taupunkt:
Aussen-T/F 526 16-02-2006 15:41:25 9.7 C 65 % 3.45 C
527 16-02-2006 15:51:25 9.7 C 65 % 3.45 C
528 16-02-2006 16:01:25 9.7 C 64 % 3.23 C
529 16-02-2006 16:11:25 9.7 C 65 % 3.45 C
530 16-02-2006 16:21:25 9.6 C 63 % 2.91 C
531 16-02-2006 16:31:25 9.4 C 63 % 2.72 C
532 16-02-2006 16:41:25 9.3 C 63 % 2.63 C
533 16-02-2006 16:51:25 9.3 C 63 % 2.63 C
534 16-02-2006 17:01:25 9.1 C 64 % 2.66 C
535 16-02-2006 17:11:25 8.9 C 66 % 2.9 C
536 16-02-2006 17:21:25 8.9 C 67 % 3.12 C
537 16-02-2006 17:31:25 8.8 C 66 % 2.81 C
538 16-02-2006 17:41:25 8.8 C 66 % 2.81 C
539 16-02-2006 17:51:25 8.6 C 66 % 2.62 C
540 16-02-2006 18:01:25 8.6 C 66 % 2.62 C
541 16-02-2006 18:11:25 8.2 C 68 % 2.66 C
542 16-02-2006 18:21:26 7.8 C 70 % 2.68 C
543 16-02-2006 18:31:25 7.6 C 71 % 2.69 C
544 16-02-2006 18:41:25 7.6 C 72 % 2.88 C
545 16-02-2006 18:51:25 7.6 C 73 % 3.08 C
546 16-02-2006 19:01:26 7.7 C 73 % 3.18 C
547 16-02-2006 19:11:26 7.7 C 72 % 2.98 C
548 16-02-2006 19:21:25 7.7 C 72 % 2.98 C
549 16-02-2006 19:31:25 7.5 C 73 % 2.98 C
550 16-02-2006 19:41:25 7.3 C 73 % 2.79 C
Sensor: Nr:Datum:Temp:Feuchte:Taupunkt:
Aussen-T/F 551 16-02-2006 19:51:25 7.2 C 73 % 2.69 C
552 16-02-2006 20:01:26 7.1 C 74 % 2.79 C
553 16-02-2006 20:11:26 7.2 C 74 % 2.89 C
554 16-02-2006 20:21:26 7.3 C 73 % 2.79 C
555 16-02-2006 20:31:26 7.2 C 75 % 3.07 C
556 16-02-2006 20:41:26 7 C 78 % 3.43 C
557 16-02-2006 20:51:25 6.9 C 80 % 3.7 C
558 16-02-2006 21:01:26 6.8 C 82 % 3.95 C
559 16-02-2006 21:11:26 6.7 C 84 % 4.19 C
560 16-02-2006 21:21:26 6.9 C 84 % 4.39 C
561 16-02-2006 21:31:26 6.7 C 84 % 4.19 C
562 16-02-2006 21:41:26 6.6 C 84 % 4.1 C
563 16-02-2006 21:51:25 6.5 C 83 % 3.83 C
564 16-02-2006 22:01:27 6.4 C 83 % 3.73 C
565 16-02-2006 22:11:27 6.5 C 83 % 3.83 C
566 16-02-2006 22:21:26 6.4 C 83 % 3.73 C
567 16-02-2006 22:31:25 6.4 C 83 % 3.73 C
568 16-02-2006 22:41:25 6.5 C 83 % 3.83 C
569 16-02-2006 22:51:26 6.5 C 83 % 3.83 C
570 16-02-2006 23:01:26 6.4 C 82 % 3.56 C
571 16-02-2006 23:11:26 6 C 81 % 2.99 C
572 16-02-2006 23:21:26 5.8 C 82 % 2.97 C
573 16-02-2006 23:31:25 5.6 C 83 % 2.95 C
574 16-02-2006 23:41:25 5.6 C 84 % 3.12 C
575 16-02-2006 23:51:26 5.4 C 85 % 3.09 C
Sensor: Nr:Datum:Temp:Feuchte:Taupunkt:
Aussen-T/F 576 17-02-2006 00:01:26 5.4 C 86 % 3.25 C
577 17-02-2006 00:11:26 5.2 C 86 % 3.05 C
578 17-02-2006 00:21:26 5.3 C 87 % 3.32 C
579 17-02-2006 00:31:26 5.3 C 87 % 3.32 C
580 17-02-2006 00:41:26 5.3 C 88 % 3.48 C
581 17-02-2006 00:51:26 5 C 87 % 3.02 C
582 17-02-2006 01:01:26 4.2 C 86 % 2.07 C
583 17-02-2006 01:11:26 4.1 C 87 % 2.14 C
584 17-02-2006 01:21:26 3.9 C 88 % 2.1 C
585 17-02-2006 01:31:25 4 C 88 % 2.2 C
586 17-02-2006 01:41:25 4.1 C 89 % 2.45 C
587 17-02-2006 01:51:26 4.1 C 89 % 2.45 C
588 17-02-2006 02:01:26 4.1 C 89 % 2.45 C
589 17-02-2006 02:11:26 4 C 89 % 2.36 C
590 17-02-2006 02:21:26 3.8 C 89 % 2.16 C
591 17-02-2006 02:31:26 3.6 C 89 % 1.96 C
592 17-02-2006 02:41:26 3.7 C 90 % 2.22 C
593 17-02-2006 02:52:28 3.5 C 90 % 2.02 C
594 17-02-2006 03:02:28 3.5 C 90 % 2.02 C
595 17-02-2006 03:12:28 3.4 C 90 % 1.92 C
596 17-02-2006 03:22:28 3.4 C 90 % 1.92 C
597 17-02-2006 03:32:28 3.4 C 90 % 1.92 C
598 17-02-2006 03:42:28 3.8 C 91 % 2.47 C
599 17-02-2006 03:52:28 4.2 C 91 % 2.87 C
600 17-02-2006 04:02:28 4.4 C 90 % 2.91 C
Sensor: Nr:Datum:Temp:Feuchte:Taupunkt:
Aussen-T/F 601 17-02-2006 04:12:28 4.6 C 88 % 2.79 C
602 17-02-2006 04:22:27 4.7 C 86 % 2.56 C
603 17-02-2006 04:32:28 4.6 C 85 % 2.3 C
604 17-02-2006 04:42:28 4.5 C 85 % 2.2 C
605 17-02-2006 04:52:28 4.2 C 84 % 1.74 C
606 17-02-2006 05:02:28 4.1 C 85 % 1.81 C
607 17-02-2006 05:12:28 3.9 C 86 % 1.78 C
608 17-02-2006 05:22:28 3.8 C 86 % 1.68 C
609 17-02-2006 05:32:28 3.4 C 86 % 1.29 C
610 17-02-2006 05:42:28 3.3 C 86 % 1.19 C
611 17-02-2006 05:52:28 3.4 C 87 % 1.45 C
612 17-02-2006 06:02:28 3.3 C 88 % 1.51 C
613 17-02-2006 06:12:29 3.2 C 88 % 1.41 C
614 17-02-2006 06:22:28 3.1 C 88 % 1.31 C
615 17-02-2006 06:32:28 3.2 C 88 % 1.41 C
616 17-02-2006 06:42:28 3.4 C 89 % 1.76 C
617 17-02-2006 06:52:28 3.6 C 88 % 1.8 C
618 17-02-2006 07:02:29 3.7 C 86 % 1.58 C
619 17-02-2006 07:12:29 3.8 C 84 % 1.35 C
620 17-02-2006 07:22:28 4 C 81 % 1.04 C
621 17-02-2006 07:32:28 4 C 79 % 0.7 C
622 17-02-2006 07:42:28 3.7 C 80 % 0.58 C
623 17-02-2006 07:52:28 3.7 C 79 % 0.4 C
624 17-02-2006 08:02:29 3.9 C 79 % 0.6 C
625 17-02-2006 08:12:29 3.8 C 80 % 0.68 C
Sensor: Nr:Datum:Temp:Feuchte:Taupunkt:
Aussen-T/F 626 17-02-2006 08:22:28 4.2 C 79 % 0.89 C
627 17-02-2006 08:32:28 4.6 C 78 % 1.1 C
628 17-02-2006 08:42:29 4.5 C 78 % 1.01 C
629 17-02-2006 08:52:28 4.5 C 78 % 1.01 C
630 17-02-2006 09:02:28 4.7 C 77 % 1.02 C
631 17-02-2006 09:12:28 4.8 C 76 % 0.94 C
632 17-02-2006 09:22:28 4.9 C 76 % 1.03 C
633 17-02-2006 09:32:29 5.2 C 74 % 0.95 C
634 17-02-2006 09:42:29 5.4 C 72 % 0.77 C
635 17-02-2006 09:52:28 5.6 C 70 % 0.57 C
636 17-02-2006 10:02:29 5.8 C 69 % 0.56 C
637 17-02-2006 10:12:29 6 C 67 % 0.35 C
638 17-02-2006 10:22:28 6.2 C 67 % 0.54 C
639 17-02-2006 10:32:28 6.4 C 68 % 0.94 C
640 17-02-2006 10:42:28 7 C 65 % 0.88 C
641 17-02-2006 10:52:28 7.2 C 63 % 0.64 C
642 17-02-2006 11:02:28 7.2 C 61 % 0.2 C
643 17-02-2006 11:12:28 7.1 C 59 % -0.36 C
644 17-02-2006 11:22:28 7.2 C 59 % -0.26 C
645 17-02-2006 11:32:29 7.5 C 58 % -0.21 C
646 17-02-2006 11:42:29 7.8 C 58 % 0.07 C
647 17-02-2006 11:52:28 7.5 C 61 % 0.48 C
648 17-02-2006 12:02:29 7.9 C 60 % 0.63 C
649 17-02-2006 12:12:29 7.6 C 65 % 1.45 C
650 17-02-2006 12:22:29 7.4 C 64 % 1.05 C
Sensor: Nr:Datum:Temp:Feuchte:Taupunkt:
Aussen-T/F 651 17-02-2006 12:32:28 7.3 C 67 % 1.59 C
652 17-02-2006 12:42:28 6.7 C 68 % 1.22 C
653 17-02-2006 12:52:29 7.1 C 68 % 1.61 C
654 17-02-2006 13:02:28 7.4 C 66 % 1.48 C
655 17-02-2006 13:12:28 7.3 C 67 % 1.59 C
656 17-02-2006 13:22:28 7.3 C 67 % 1.59 C
657 17-02-2006 13:32:29 7.8 C 63 % 1.21 C
658 17-02-2006 13:42:29 8.3 C 59 % 0.77 C
659 17-02-2006 13:52:29 8.5 C 57 % 0.48 C
660 17-02-2006 14:02:29 8.9 C 56 % 0.61 C
661 17-02-2006 14:12:29 9.1 C 53 % 0.04 C
662 17-02-2006 14:22:29 9 C 52 % -0.31 C
663 17-02-2006 14:32:29 8.3 C 61 % 1.23 C
664 17-02-2006 14:42:29 8 C 60 % 0.72 C
665 17-02-2006 14:52:29 8.2 C 57 % 0.2 C
666 17-02-2006 15:02:29 8.6 C 56 % 0.33 C
667 17-02-2006 15:12:29 9 C 53 % -0.05 C
668 17-02-2006 15:22:29 9.2 C 53 % 0.13 C
669 17-02-2006 15:32:29 9 C 52 % -0.31 C
670 17-02-2006 15:42:29 8.3 C 55 % -0.2 C
671 17-02-2006 15:52:29 8.1 C 57 % 0.11 C
672 17-02-2006 16:02:29 8.2 C 55 % -0.29 C
673 17-02-2006 16:12:29 8.2 C 55 % -0.29 C
674 17-02-2006 16:22:29 7.8 C 56 % -0.41 C
675 17-02-2006 16:32:29 7.8 C 57 % -0.17 C
Sensor: Nr:Datum:Temp:Feuchte:Taupunkt:
Aussen-T/F 676 17-02-2006 16:42:29 7.8 C 57 % -0.17 C
677 17-02-2006 16:52:29 7.6 C 57 % -0.36 C
678 17-02-2006 17:02:30 7.5 C 57 % -0.45 C
679 17-02-2006 17:12:30 7.4 C 59 % -0.07 C
680 17-02-2006 17:22:30 7.4 C 59 % -0.07 C
681 17-02-2006 17:32:30 7.2 C 63 % 0.64 C
682 17-02-2006 17:42:30 6.9 C 65 % 0.79 C
683 17-02-2006 17:52:29 7 C 64 % 0.67 C
684 17-02-2006 18:02:29 7.2 C 61 % 0.2 C
685 17-02-2006 18:12:29 7.3 C 60 % 0.06 C
686 17-02-2006 18:22:29 7.3 C 60 % 0.06 C
687 17-02-2006 18:32:29 7.3 C 60 % 0.06 C
688 17-02-2006 18:42:29 7.3 C 60 % 0.06 C
689 17-02-2006 18:52:30 7.4 C 59 % -0.07 C
690 17-02-2006 19:02:29 7.4 C 59 % -0.07 C
691 17-02-2006 19:12:29 7.5 C 58 % -0.21 C
692 17-02-2006 19:22:29 7.5 C 57 % -0.45 C
693 17-02-2006 19:32:29 7.4 C 57 % -0.55 C
694 17-02-2006 19:42:29 7.5 C 57 % -0.45 C
695 17-02-2006 19:52:29 7.5 C 56 % -0.7 C
696 17-02-2006 20:02:29 7.5 C 56 % -0.7 C
697 17-02-2006 20:12:29 7.5 C 56 % -0.7 C
698 17-02-2006 20:22:30 7.4 C 56 % -0.79 C
699 17-02-2006 20:32:30 7.4 C 56 % -0.79 C
700 17-02-2006 20:42:30 7.4 C 56 % -0.79 C
Sensor: Nr:Datum:Temp:Feuchte:Taupunkt:
Aussen-T/F 701 17-02-2006 20:52:30 7.4 C 56 % -0.79 C
702 17-02-2006 21:02:30 7.4 C 55 % -1.03 C
703 17-02-2006 21:12:30 7.3 C 56 % -0.88 C
704 17-02-2006 21:22:29 7.2 C 56 % -0.98 C
705 17-02-2006 21:32:29 7.2 C 56 % -0.98 C
706 17-02-2006 21:42:29 7.3 C 56 % -0.88 C
707 17-02-2006 21:52:30 7.1 C 55 % -1.31 C
708 17-02-2006 22:02:30 7.2 C 55 % -1.22 C
709 17-02-2006 22:12:30 7.2 C 54 % -1.47 C
710 17-02-2006 22:22:30 7.1 C 54 % -1.56 C
711 17-02-2006 22:32:30 7.1 C 54 % -1.56 C
712 17-02-2006 22:42:30 6.9 C 56 % -1.26 C
713 17-02-2006 22:52:30 6.6 C 58 % -1.06 C
714 17-02-2006 23:02:29 6.4 C 59 % -1.01 C
715 17-02-2006 23:12:29 6.2 C 60 % -0.97 C
716 17-02-2006 23:22:30 6.4 C 60 % -0.78 C
717 17-02-2006 23:32:30 6.5 C 60 % -0.69 C
718 17-02-2006 23:42:30 6.5 C 60 % -0.69 C
719 17-02-2006 23:52:30 6.2 C 61 % -0.75 C
720 18-02-2006 00:02:30 6.1 C 61 % -0.84 C
721 18-02-2006 00:12:30 6.1 C 61 % -0.84 C
722 18-02-2006 00:22:30 6.2 C 61 % -0.75 C
723 18-02-2006 00:32:30 6.3 C 60 % -0.88 C
724 18-02-2006 00:42:30 6.4 C 60 % -0.78 C
725 18-02-2006 00:52:30 6.6 C 59 % -0.83 C
Sensor: Nr:Datum:Temp:Feuchte:Taupunkt:
Aussen-T/F 726 18-02-2006 01:02:30 6.5 C 59 % -0.92 C
727 18-02-2006 01:12:30 6.4 C 59 % -1.01 C
728 18-02-2006 01:22:30 6.5 C 59 % -0.92 C
729 18-02-2006 01:32:30 6.5 C 58 % -1.15 C
730 18-02-2006 01:42:30 6.5 C 58 % -1.15 C
731 18-02-2006 01:52:30 6.4 C 59 % -1.01 C
732 18-02-2006 02:02:30 6.2 C 60 % -0.97 C
733 18-02-2006 02:12:30 6.1 C 61 % -0.84 C
734 18-02-2006 02:22:30 6 C 61 % -0.94 C
735 18-02-2006 02:32:30 6 C 61 % -0.94 C
736 18-02-2006 02:42:30 5.7 C 64 % -0.56 C
737 18-02-2006 02:53:31 5.6 C 65 % -0.45 C
738 18-02-2006 03:03:31 5.6 C 64 % -0.66 C
739 18-02-2006 03:13:31 5.4 C 64 % -0.85 C
740 18-02-2006 03:23:31 5.2 C 63 % -1.25 C
741 18-02-2006 03:33:31 4.9 C 65 % -1.11 C
742 18-02-2006 03:43:31 4.9 C 69 % -0.3 C
743 18-02-2006 03:53:31 5 C 69 % -0.2 C
744 18-02-2006 04:03:31 4.8 C 72 % 0.19 C
745 18-02-2006 04:13:31 4.6 C 73 % 0.19 C
746 18-02-2006 04:23:31 4.5 C 74 % 0.28 C
747 18-02-2006 04:33:31 4 C 74 % -0.2 C
748 18-02-2006 04:43:31 3.9 C 76 % 0.07 C
749 18-02-2006 04:53:31 3.9 C 77 % 0.25 C
750 18-02-2006 05:03:31 4.1 C 77 % 0.44 C
Sensor: Nr:Datum:Temp:Feuchte:Taupunkt:
Aussen-T/F 751 18-02-2006 05:13:32 4.2 C 77 % 0.54 C
752 18-02-2006 05:23:31 4.2 C 76 % 0.36 C
753 18-02-2006 05:33:31 4.3 C 76 % 0.45 C
754 18-02-2006 05:43:31 4.2 C 75 % 0.17 C
755 18-02-2006 05:53:31 4.1 C 75 % 0.08 C
756 18-02-2006 06:03:31 4.1 C 75 % 0.08 C
757 18-02-2006 06:13:31 4.3 C 74 % 0.09 C
758 18-02-2006 06:23:32 4.4 C 73 % 0 C
759 18-02-2006 06:33:32 4.5 C 72 % -0.1 C
760 18-02-2006 06:43:32 4.6 C 71 % -0.19 C
761 18-02-2006 06:53:32 4.7 C 70 % -0.29 C
762 18-02-2006 07:03:32 4.8 C 70 % -0.2 C
763 18-02-2006 07:13:33 4.8 C 70 % -0.2 C
764 18-02-2006 07:23:31 4.7 C 71 % -0.1 C
765 18-02-2006 07:33:31 4.6 C 71 % -0.19 C
766 18-02-2006 07:43:31 4.6 C 72 % 0 C
767 18-02-2006 07:53:31 4.6 C 72 % 0 C
768 18-02-2006 08:03:32 4.6 C 72 % 0 C
769 18-02-2006 08:13:32 4.8 C 73 % 0.38 C
770 18-02-2006 08:23:32 4.8 C 73 % 0.38 C
771 18-02-2006 08:33:32 4.9 C 73 % 0.48 C
772 18-02-2006 08:43:32 5.1 C 72 % 0.48 C
773 18-02-2006 08:53:32 5.1 C 72 % 0.48 C
774 18-02-2006 09:03:32 4.8 C 76 % 0.94 C
775 18-02-2006 09:13:32 4.5 C 79 % 1.18 C
Sensor: Nr:Datum:Temp:Feuchte:Taupunkt:
Aussen-T/F 776 18-02-2006 09:23:31 4.5 C 81 % 1.53 C
777 18-02-2006 09:33:32 4.4 C 82 % 1.6 C
778 18-02-2006 09:43:32 4.3 C 84 % 1.84 C
779 18-02-2006 09:53:32 4.3 C 84 % 1.84 C
780 18-02-2006 10:03:33 4.2 C 85 % 1.91 C
781 18-02-2006 10:13:33 4.2 C 85 % 1.91 C
782 18-02-2006 10:23:32 4.2 C 85 % 1.91 C
783 18-02-2006 10:33:31 4.5 C 85 % 2.2 C
784 18-02-2006 10:43:31 5 C 83 % 2.36 C
785 18-02-2006 10:53:32 5.1 C 81 % 2.12 C
786 18-02-2006 11:03:32 5.7 C 81 % 2.7 C
787 18-02-2006 11:13:32 5.9 C 77 % 2.19 C
788 18-02-2006 11:23:32 6.2 C 73 % 1.73 C
789 18-02-2006 11:33:32 6.3 C 74 % 2.02 C
790 18-02-2006 11:43:32 6.2 C 73 % 1.73 C
791 18-02-2006 11:53:32 6.6 C 73 % 2.12 C
792 18-02-2006 12:03:32 6.8 C 72 % 2.12 C
793 18-02-2006 12:13:32 7 C 70 % 1.91 C
794 18-02-2006 12:23:32 7.3 C 69 % 2 C
795 18-02-2006 12:33:32 7.6 C 66 % 1.67 C
796 18-02-2006 12:43:32 7.8 C 67 % 2.07 C
797 18-02-2006 12:53:32 7.8 C 67 % 2.07 C
798 18-02-2006 13:03:32 7.5 C 70 % 2.39 C
799 18-02-2006 13:13:32 7.3 C 73 % 2.79 C
800 18-02-2006 13:23:32 7.1 C 74 % 2.79 C
Sensor: Nr:Datum:Temp:Feuchte:Taupunkt:
Aussen-T/F 801 18-02-2006 13:33:32 7 C 75 % 2.88 C
802 18-02-2006 13:43:32 6.8 C 77 % 3.06 C
803 18-02-2006 13:53:33 6.8 C 78 % 3.24 C
804 18-02-2006 14:03:33 7 C 77 % 3.25 C
805 18-02-2006 14:13:33 6.5 C 76 % 2.58 C
806 18-02-2006 14:23:32 6.8 C 77 % 3.06 C
807 18-02-2006 14:33:33 7 C 75 % 2.88 C
808 18-02-2006 14:43:33 6.7 C 77 % 2.96 C
809 18-02-2006 14:53:32 6.5 C 80 % 3.31 C
810 18-02-2006 15:03:32 6.6 C 81 % 3.58 C
811 18-02-2006 15:13:33 6.7 C 80 % 3.5 C
812 18-02-2006 15:23:32 6.7 C 80 % 3.5 C
813 18-02-2006 15:33:32 7 C 79 % 3.61 C
814 18-02-2006 15:43:32 8 C 74 % 3.66 C
815 18-02-2006 15:53:33 8.1 C 75 % 3.94 C
816 18-02-2006 16:03:32 7.8 C 71 % 2.88 C
817 18-02-2006 16:13:32 7.7 C 69 % 2.38 C
818 18-02-2006 16:23:32 7.8 C 71 % 2.88 C
819 18-02-2006 16:33:32 8.1 C 67 % 2.35 C
820 18-02-2006 16:43:32 8.6 C 64 % 2.19 C
821 18-02-2006 16:53:33 8.7 C 61 % 1.61 C
822 18-02-2006 17:03:32 8.3 C 63 % 1.68 C
823 18-02-2006 17:13:32 7.7 C 65 % 1.55 C
824 18-02-2006 17:23:32 7.2 C 68 % 1.7 C
825 18-02-2006 17:33:33 7 C 68 % 1.51 C
Sensor: Nr:Datum:Temp:Feuchte:Taupunkt:
Aussen-T/F 826 18-02-2006 17:43:33 6.9 C 68 % 1.41 C
827 18-02-2006 17:53:33 6.3 C 69 % 1.04 C
828 18-02-2006 18:03:33 6 C 71 % 1.15 C
829 18-02-2006 18:13:33 5.8 C 74 % 1.53 C
830 18-02-2006 18:23:33 5.6 C 76 % 1.71 C
831 18-02-2006 18:33:33 5.7 C 75 % 1.62 C
832 18-02-2006 18:43:33 5.7 C 75 % 1.62 C
833 18-02-2006 18:53:32 5.7 C 74 % 1.44 C
834 18-02-2006 19:03:33 5.8 C 73 % 1.34 C
835 18-02-2006 19:13:33 5.9 C 71 % 1.06 C
836 18-02-2006 19:23:33 6 C 68 % 0.55 C
837 18-02-2006 19:33:32 6.1 C 67 % 0.44 C
838 18-02-2006 19:43:32 6.2 C 66 % 0.33 C
839 18-02-2006 19:53:32 6.2 C 67 % 0.54 C
840 18-02-2006 20:03:33 6.2 C 66 % 0.33 C
841 18-02-2006 20:13:33 6.1 C 67 % 0.44 C
842 18-02-2006 20:23:33 5.9 C 70 % 0.86 C
843 18-02-2006 20:33:33 5.8 C 72 % 1.15 C
844 18-02-2006 20:43:33 5.8 C 72 % 1.15 C
845 18-02-2006 20:53:33 5.7 C 73 % 1.25 C
846 18-02-2006 21:03:33 5.6 C 73 % 1.15 C
847 18-02-2006 21:13:33 5.7 C 72 % 1.06 C
848 18-02-2006 21:23:33 5.8 C 71 % 0.96 C
849 18-02-2006 21:33:33 5.8 C 71 % 0.96 C
850 18-02-2006 21:43:33 5.8 C 70 % 0.76 C
Sensor: Nr:Datum:Temp:Feuchte:Taupunkt:
Aussen-T/F 851 18-02-2006 21:53:33 5.6 C 70 % 0.57 C
852 18-02-2006 22:03:33 5.6 C 69 % 0.37 C
853 18-02-2006 22:13:33 5.6 C 69 % 0.37 C
854 18-02-2006 22:23:33 5.6 C 69 % 0.37 C
855 18-02-2006 22:33:33 5.5 C 70 % 0.48 C
856 18-02-2006 22:43:33 5.5 C 70 % 0.48 C
857 18-02-2006 22:53:33 5.4 C 70 % 0.38 C
858 18-02-2006 23:03:33 5.4 C 70 % 0.38 C
859 18-02-2006 23:13:33 5.4 C 70 % 0.38 C
860 18-02-2006 23:23:33 5.4 C 69 % 0.18 C
861 18-02-2006 23:33:33 5.4 C 69 % 0.18 C
862 18-02-2006 23:43:33 5.3 C 69 % 0.09 C
863 18-02-2006 23:53:33 5.3 C 70 % 0.28 C
864 19-02-2006 00:03:33 5.2 C 70 % 0.19 C
865 19-02-2006 00:13:33 5.2 C 70 % 0.19 C
866 19-02-2006 00:23:33 5.2 C 70 % 0.19 C
867 19-02-2006 00:33:34 5.1 C 71 % 0.29 C
868 19-02-2006 00:43:34 5.1 C 72 % 0.48 C
869 19-02-2006 00:53:34 5.1 C 73 % 0.67 C
870 19-02-2006 01:03:34 5.2 C 72 % 0.58 C
871 19-02-2006 01:13:34 5.2 C 71 % 0.38 C
872 19-02-2006 01:23:34 5.2 C 71 % 0.38 C
873 19-02-2006 01:33:34 5.2 C 71 % 0.38 C
874 19-02-2006 01:43:34 5.2 C 71 % 0.38 C
875 19-02-2006 01:53:34 5.1 C 72 % 0.48 C
Sensor: Nr:Datum:Temp:Feuchte:Taupunkt:
Aussen-T/F 876 19-02-2006 02:03:33 5 C 72 % 0.38 C
877 19-02-2006 02:13:33 5 C 72 % 0.38 C
878 19-02-2006 02:23:33 5 C 73 % 0.57 C
879 19-02-2006 02:33:34 5 C 73 % 0.57 C
880 19-02-2006 02:43:34 5.1 C 73 % 0.67 C
881 19-02-2006 02:54:35 5.1 C 73 % 0.67 C
882 19-02-2006 03:04:35 5.1 C 73 % 0.67 C
883 19-02-2006 03:14:35 5.1 C 74 % 0.86 C
884 19-02-2006 03:24:35 5.1 C 74 % 0.86 C
885 19-02-2006 03:34:35 5 C 75 % 0.95 C
886 19-02-2006 03:44:35 5 C 75 % 0.95 C
887 19-02-2006 03:54:35 5 C 76 % 1.13 C
888 19-02-2006 04:04:35 5.1 C 75 % 1.04 C
889 19-02-2006 04:14:35 4.9 C 77 % 1.22 C
890 19-02-2006 04:24:35 5.1 C 76 % 1.23 C
891 19-02-2006 04:34:35 5.3 C 75 % 1.24 C
892 19-02-2006 04:44:35 5.3 C 75 % 1.24 C
893 19-02-2006 04:54:35 5.2 C 75 % 1.14 C
894 19-02-2006 05:04:35 5.2 C 76 % 1.32 C
895 19-02-2006 05:14:35 5.1 C 76 % 1.23 C
896 19-02-2006 05:24:35 5.1 C 77 % 1.41 C
897 19-02-2006 05:34:35 5.1 C 77 % 1.41 C
898 19-02-2006 05:44:35 5.1 C 77 % 1.41 C
899 19-02-2006 05:54:35 5.2 C 77 % 1.51 C
900 19-02-2006 06:04:35 5.2 C 77 % 1.51 C
Sensor: Nr:Datum:Temp:Feuchte:Taupunkt:
Aussen-T/F 901 19-02-2006 06:14:35 5.4 C 75 % 1.33 C
902 19-02-2006 06:24:35 5.5 C 72 % 0.86 C
903 19-02-2006 06:34:36 5.3 C 72 % 0.67 C
904 19-02-2006 06:44:36 5.4 C 72 % 0.77 C
905 19-02-2006 06:54:36 5.3 C 73 % 0.86 C
906 19-02-2006 07:04:35 5.1 C 74 % 0.86 C
907 19-02-2006 07:14:35 5 C 75 % 0.95 C
908 19-02-2006 07:24:35 5 C 76 % 1.13 C
909 19-02-2006 07:34:35 5 C 76 % 1.13 C
910 19-02-2006 07:44:35 5 C 75 % 0.95 C
911 19-02-2006 07:54:36 5 C 75 % 0.95 C
912 19-02-2006 08:04:35 5 C 75 % 0.95 C
913 19-02-2006 08:14:35 4.9 C 75 % 0.85 C
914 19-02-2006 08:24:35 5.1 C 74 % 0.86 C
915 19-02-2006 08:34:36 5 C 74 % 0.76 C
916 19-02-2006 08:44:36 5 C 74 % 0.76 C
917 19-02-2006 08:54:36 5 C 73 % 0.57 C
918 19-02-2006 09:04:36 5.2 C 71 % 0.38 C
919 19-02-2006 09:14:36 5.4 C 70 % 0.38 C
920 19-02-2006 09:24:36 5.5 C 69 % 0.28 C
921 19-02-2006 09:34:35 5.9 C 69 % 0.66 C
922 19-02-2006 09:44:35 6 C 68 % 0.55 C
923 19-02-2006 09:54:36 6.1 C 67 % 0.44 C
924 19-02-2006 10:04:36 6.3 C 66 % 0.43 C
925 19-02-2006 10:14:36 6.4 C 66 % 0.52 C
Sensor: Nr:Datum:Temp:Feuchte:Taupunkt:
Aussen-T/F 926 19-02-2006 10:24:35 6.5 C 65 % 0.41 C
927 19-02-2006 10:34:36 6.6 C 64 % 0.29 C
928 19-02-2006 10:44:36 7 C 62 % 0.23 C
929 19-02-2006 10:54:36 6.8 C 62 % 0.04 C
930 19-02-2006 11:04:36 6.8 C 64 % 0.48 C
931 19-02-2006 11:14:37 7 C 62 % 0.23 C
932 19-02-2006 11:24:36 7.4 C 62 % 0.61 C
933 19-02-2006 11:34:36 7.5 C 61 % 0.48 C
934 19-02-2006 11:44:36 7.8 C 60 % 0.53 C
935 19-02-2006 11:54:36 8.2 C 59 % 0.68 C
936 19-02-2006 12:04:37 8 C 59 % 0.49 C
937 19-02-2006 12:14:37 8.3 C 58 % 0.54 C
938 19-02-2006 12:24:36 8.6 C 58 % 0.82 C
939 19-02-2006 12:34:36 9 C 56 % 0.71 C
940 19-02-2006 12:44:36 9.3 C 55 % 0.74 C
941 19-02-2006 12:54:36 9.2 C 55 % 0.64 C
942 19-02-2006 13:04:36 9.3 C 54 % 0.48 C
943 19-02-2006 13:14:36 9.5 C 54 % 0.67 C
944 19-02-2006 13:24:36 9.9 C 53 % 0.78 C
945 19-02-2006 13:34:36 10 C 51 % 0.34 C
946 19-02-2006 13:44:36 10 C 51 % 0.34 C
947 19-02-2006 13:54:36 10 C 50 % 0.07 C
948 19-02-2006 14:04:36 10.5 C 50 % 0.53 C
949 19-02-2006 14:14:36 10.7 C 48 % 0.15 C
950 19-02-2006 14:24:36 10.8 C 47 % -0.04 C
Sensor: Nr:Datum:Temp:Feuchte:Taupunkt:
Aussen-T/F 951 19-02-2006 14:34:36 11.2 C 46 % 0.02 C
952 19-02-2006 14:44:36 11.5 C 46 % 0.3 C
953 19-02-2006 14:54:36 11.4 C 46 % 0.21 C
954 19-02-2006 15:04:36 10.8 C 47 % -0.04 C
955 19-02-2006 15:14:36 10.6 C 49 % 0.35 C
956 19-02-2006 15:24:37 10.7 C 50 % 0.72 C
957 19-02-2006 15:34:36 10.7 C 49 % 0.44 C
958 19-02-2006 15:44:36 11 C 48 % 0.43 C
959 19-02-2006 15:54:37 10.7 C 49 % 0.44 C
960 19-02-2006 16:04:37 10.7 C 50 % 0.72 C
961 19-02-2006 16:14:37 10.7 C 50 % 0.72 C
962 19-02-2006 16:24:37 10.7 C 50 % 0.72 C
963 19-02-2006 16:34:36 10.5 C 50 % 0.53 C
964 19-02-2006 16:44:36 10 C 52 % 0.61 C
965 19-02-2006 16:54:36 9.7 C 55 % 1.11 C
966 19-02-2006 17:04:37 9.5 C 55 % 0.92 C
967 19-02-2006 17:14:37 9.4 C 55 % 0.83 C
968 19-02-2006 17:24:37 9.3 C 56 % 0.99 C
969 19-02-2006 17:34:37 9.1 C 56 % 0.8 C
970 19-02-2006 17:44:37 8.9 C 57 % 0.86 C
971 19-02-2006 17:54:37 8.6 C 57 % 0.58 C
972 19-02-2006 18:04:37 8.5 C 58 % 0.72 C
973 19-02-2006 18:14:37 8.5 C 58 % 0.72 C
974 19-02-2006 18:24:37 8.4 C 58 % 0.63 C
975 19-02-2006 18:34:36 8.3 C 58 % 0.54 C
Sensor: Nr:Datum:Temp:Feuchte:Taupunkt:
Aussen-T/F 976 19-02-2006 18:44:36 8.2 C 58 % 0.44 C
977 19-02-2006 18:54:37 8.2 C 58 % 0.44 C
978 19-02-2006 19:04:37 8.1 C 58 % 0.35 C
979 19-02-2006 19:14:37 8.1 C 58 % 0.35 C
980 19-02-2006 19:24:37 8 C 58 % 0.25 C
981 19-02-2006 19:34:36 7.9 C 59 % 0.4 C
982 19-02-2006 19:44:36 7.9 C 59 % 0.4 C
983 19-02-2006 19:54:37 7.9 C 59 % 0.4 C
984 19-02-2006 20:04:37 7.9 C 59 % 0.4 C
985 19-02-2006 20:14:38 7.9 C 59 % 0.4 C
986 19-02-2006 20:24:37 7.8 C 58 % 0.07 C
987 19-02-2006 20:34:36 7.8 C 58 % 0.07 C
988 19-02-2006 20:44:36 7.8 C 58 % 0.07 C
989 19-02-2006 20:54:37 7.5 C 61 % 0.48 C
990 19-02-2006 21:04:39 7.3 C 61 % 0.29 C
991 19-02-2006 21:14:39 7.4 C 61 % 0.38 C
992 19-02-2006 21:24:38 7.5 C 60 % 0.25 C
993 19-02-2006 21:34:38 7.5 C 59 % 0.02 C
994 19-02-2006 21:44:38 7.4 C 59 % -0.07 C
995 19-02-2006 21:54:37 7.3 C 58 % -0.4 C
996 19-02-2006 22:04:39 7.3 C 58 % -0.4 C
997 19-02-2006 22:14:39 7.2 C 59 % -0.26 C
998 19-02-2006 22:24:37 6.9 C 61 % -0.09 C
999 19-02-2006 22:34:37 6.6 C 62 % -0.15 C
1000 19-02-2006 22:44:37 6.4 C 62 % -0.34 C
Sensor: Nr:Datum:Temp:Feuchte:Taupunkt:
Aussen-T/F 1001 19-02-2006 22:54:37 6.3 C 62 % -0.43 C
1002 19-02-2006 23:04:37 6.3 C 62 % -0.43 C
1003 19-02-2006 23:14:37 6.3 C 61 % -0.65 C
1004 19-02-2006 23:24:37 6.2 C 62 % -0.53 C
1005 19-02-2006 23:34:37 6.1 C 62 % -0.62 C
1006 19-02-2006 23:44:37 6 C 61 % -0.94 C
1007 19-02-2006 23:54:37 5.9 C 63 % -0.59 C

Legende:
   Min
   Max


Maximal/Minimal-Werte vom 13.02.2006 - 19.02.2006

Sensor Min Max Avg
Temp
(Aussen-T/F)
0 °C
13-02-2006  07:28:12
11.5 °C
19-02-2006  14:44:36
5.61 °C
Feuchte
(Aussen-T/F)
33 %
13-02-2006  15:48:13
92 %
16-02-2006  05:31:24
68.47 %
Taupunkt
(Aussen-T/F)
-8.26 C
13-02-2006  12:18:13
4.86 C
16-02-2006  00:00:22
0.04 C

Die Daten stammen von einer Davis Vantage Pro 2 Wetter-Station und werden unter Linux mit der Software wview2wettercgi und aufbereitet. Alle Angaben erfolgen ohne Gewähr für ihre Vollständigkeit oder Richtigkeit.
Kontakt: Rainer Krienke krienke@uni-koblenz.de . Meine Webseiten an der Uni Koblenz oder privat.
Version: $Revision: 0.78 $